Regional Weather Roundup
Issued by NWS

Home | Current Version | Previous Version | Graphics & Text | Print | Product List | Glossary On
Versions: 1 2 3 4 5 6 7 8 9 10 11 12 13 14 15 16 17 18 19 20 21 22 23 24 25 26 27 28 29 30 31 32 33 34 35 36 37 38 39 40 41 42 43 44 45 46 47 48 49 50
000
ASUS43 KOAX 170310
RWRNE

WEATHER ROUNDUP FOR NEBRASKA
NATIONAL WEATHER SERVICE OMAHA NE
1000 PM CDT WED APR 16 2014

NOTES: SATELLITE DATA IS BEING USED TO AUGMENT CLOUD COVER ABOVE
       12000 FEET.
       "FAIR" INDICATES FEW OR NO CLOUDS BELOW 12,000 FEET WITH NO
       SIGNIFICANT WEATHER AND/OR OBSTRUCTIONS TO VISIBILITY.

  * THESE STATIONS DO NOT REPORT WEATHER SUCH AS RAIN...SNOW OR FOG.

NEZ001>004-019>022-054>056-170400-
NEBRASKA PANHANDLE

CITY           SKY/WX    TMP DP  RH WIND       PRES   REMARKS
SCOTTSBLUFF    PTCLDY    36  30  79 E8        30.08R WCI  30
ALLIANCE       MOCLDY    33  29  85 NE9       30.09R WCI  25
CHADRON        PTCLDY    37  31  78 E7        30.12R WCI  32
KIMBALL        MOCLDY    35  28  74 E9        30.06R WCI  28
SIDNEY         CLEAR     35  27  72 E8        30.09R WCI  29
$$

NEZ057>060-069>072-079>082-170400-
SOUTHWEST NEBRASKA

CITY           SKY/WX    TMP DP  RH WIND       PRES   REMARKS
NORTH PLATTE   CLOUDY    35  27  72 NE17      30.11R WCI  25
IMPERIAL       MOCLDY    38  31  76 NE9       30.11R WCI  31
LEXINGTON      MOCLDY    36  29  78 N16       30.12R WCI  26
MCCOOK         CLOUDY    40  32  73 N16       30.11R WCI  31
OGALLALA       CLOUDY    37  30  75 E12       30.11R WCI  29
$$

NEZ005>010-023>029-035>040-094-170400-
NORTH CENTRAL NEBRASKA

CITY           SKY/WX    TMP DP  RH WIND       PRES   REMARKS
VALENTINE      CLOUDY    31  23  72 N14       30.18R WCI  21
AINSWORTH      CLOUDY    32  26  78 N14       30.15R WCI  22
BROKEN BOW     CLOUDY    31  25  78 N22G30    30.12R WCI  18
O`NEILL        CLOUDY    32  23  69 N20G25    30.15R WCI  20
ORD            CLOUDY    33  25  72 N23G30    30.12R WCI  21
THEDFORD       CLOUDY    32  28  83 N9        30.16R WCI  24
$$

NEZ041-046>049-061>064-073>077-083>087-170400-
SOUTH CENTRAL NEBRASKA

CITY           SKY/WX    TMP DP  RH WIND       PRES   REMARKS
GRAND ISLAND   CLOUDY    36  26  67 N22       30.12R WCI  25
AURORA         MOCLDY    36  28  73 N24G31    30.10R WCI  24
HASTINGS       CLOUDY    36  27  69 N20G25    30.11R WCI  25
HEBRON         PTCLDY    39  29  68 N16       30.10R WCI  30
HOLDREGE       CLOUDY    36  29  78 N16       30.09R WCI  26
KEARNEY *      CLOUDY    36  28  75 N18       30.12R WCI  25
YORK           MOCLDY    36  27  69 N14G21    30.09R WCI  27
$$

NEZ011>018-030>034-042>045-170400-
NORTHEAST NEBRASKA

CITY           SKY/WX    TMP DP  RH WIND       PRES   REMARKS
NORFOLK        CLOUDY    34  25  69 N24G35    30.08R WCI  21
ALBION         CLOUDY    33  25  70 N17G28    30.10R WCI  23
BLAIR          CLOUDY    36  30  78 NW17G32   30.02R WCI  26
COLUMBUS *     CLOUDY    36  23  60 N16G24    30.10R WCI  26
FREMONT        CLOUDY    37  29  74 NW21G32   30.08R WCI  26
TEKAMAH        CLOUDY    36  27  69 NW24G36   30.05R WCI  24
$$

NEZ050>053-065>068-078-088>093-170400-
SOUTHEAST NEBRASKA

CITY           SKY/WX    TMP DP  RH WIND       PRES   REMARKS
LINCOLN        CLOUDY    41  27  57 N18       30.09R
OMAHA EPPLEY   CLOUDY    38  30  73 NW22G30   30.04R WCI  27
BEATRICE       CLOUDY    39  29  68 N20G25    30.08R WCI  29
FALLS CITY     MOCLDY    42  31  64 NW21G30   30.03R
NEBRASKA CITY  MOCLDY    38  31  74 NW22G28   30.04R WCI  28
PLATTSMOUTH    CLOUDY    39  30  70 NW21G32   30.03R WCI  29
$$

NEZ044-045-051>053-067-170400-
OMAHA AREA

CITY           SKY/WX    TMP DP  RH WIND       PRES   REMARKS
OMAHA EPPLEY   CLOUDY    38  30  73 NW22G30   30.04R WCI  27
BLAIR          CLOUDY    36  30  78 NW17G32   30.02R WCI  26
FREMONT        CLOUDY    37  29  74 NW21G32   30.08R WCI  26
MILLARD        CLOUDY    38  30  71 NW20G29   30.05R WCI  28
OFFUTT AFB     CLOUDY    39  32  77 NW18G30   30.04R WCI  29
PLATTSMOUTH    CLOUDY    39  30  70 NW21G32   30.03R WCI  29
WAHOO          CLOUDY    37  28  67 N25G33    30.07R WCI  26
$$



USA.gov is the U.S. government's official web portal to all federal, state and local government web resources and services.